Regional Weather Roundup
Issued by NWS

Home | Current Version | Previous Version | Graphics & Text | Print | Product List | Glossary On
Versions: 1 2 3 4 5 6 7 8 9 10 11 12 13 14 15 16 17 18 19 20 21 22 23 24 25 26 27 28 29 30 31 32 33 34 35 36 37 38 39 40 41 42 43 44 45 46 47 48 49 50
000
ASUS43 KOAX 180110
RWRNE

WEATHER ROUNDUP FOR NEBRASKA
NATIONAL WEATHER SERVICE OMAHA NE
700 PM CST WED DEC 17 2014

NOTES: SATELLITE DATA IS BEING USED TO AUGMENT CLOUD COVER ABOVE
       12000 FEET.
       "FAIR" INDICATES FEW OR NO CLOUDS BELOW 12,000 FEET WITH NO
       SIGNIFICANT WEATHER AND/OR OBSTRUCTIONS TO VISIBILITY.

  * THESE STATIONS DO NOT REPORT WEATHER SUCH AS RAIN...SNOW OR FOG.

NEZ001>004-019>022-054>056-180200-
NEBRASKA PANHANDLE

CITY           SKY/WX    TMP DP  RH WIND       PRES   REMARKS
SCOTTSBLUFF    FOG       19  17  92 E8        29.98R VSB 1/2 WCI   9
ALLIANCE       CLOUDY    22  21  96 S9        29.97S FOG     WCI  12
CHADRON          N/A     17  14  88 W3        30.00R
KIMBALL        CLEAR     17  15  93 S5        29.93R WCI  10
SIDNEY         CLOUDY    22  20  92 S10       29.98S FOG     WCI  11
$$

NEZ057>060-069>072-079>082-180200-
SOUTHWEST NEBRASKA

CITY           SKY/WX    TMP DP  RH WIND       PRES   REMARKS
NORTH PLATTE   CLOUDY    22  19  89 S7        30.10R WCI  13
IMPERIAL       CLOUDY    24  21  88 SE7       30.06S FOG     WCI  16
LEXINGTON      CLOUDY    24  23  96 E5        30.13S WCI  18
MCCOOK         FOG       24  23  96 E6        30.12R VSB 1   WCI  17
OGALLALA       CLOUDY    23  22  96 S5        30.06R WCI  17
$$

NEZ005>010-023>029-035>040-094-180200-
NORTH CENTRAL NEBRASKA

CITY           SKY/WX    TMP DP  RH WIND       PRES   REMARKS
VALENTINE      CLOUDY    22  19  89 S10       30.10R WCI  11
AINSWORTH      CLOUDY    21  19  95 SE7       30.11R FOG     WCI  12
BROKEN BOW     CLOUDY    22  20  92 SE5       30.13R WCI  16
O`NEILL        CLOUDY    21  20  94 S5        30.17F WCI  15
ORD            CLOUDY    23  19  85 E5        30.16R WCI  17
THEDFORD       CLOUDY    23  22  96 S9        30.09S FOG     WCI  13
$$

NEZ041-046>049-061>064-073>077-083>087-180200-
SOUTH CENTRAL NEBRASKA

CITY           SKY/WX    TMP DP  RH WIND       PRES   REMARKS
GRAND ISLAND   MOCLDY    24  18  77 SE6       30.19S WCI  17
AURORA         CLOUDY    25  19  77 SE8       30.19S WCI  16
HASTINGS       CLOUDY    24  17  74 E5        30.17R WCI  18
HEBRON         CLOUDY    28  18  66 E7        30.21R WCI  20
HOLDREGE       CLOUDY    25  22  89 E7        30.14R WCI  17
KEARNEY *      CLOUDY    25  19  80 E9        30.16R WCI  15
YORK           CLOUDY    25 N/A N/A SE7       30.21R WCI  17
$$

NEZ011>018-030>034-042>045-180200-
NORTHEAST NEBRASKA

CITY           SKY/WX    TMP DP  RH WIND       PRES   REMARKS
NORFOLK        CLOUDY    25  16  68 E7        30.20F WCI  17
ALBION         CLOUDY    25  19  77 SE5       30.19R WCI  19
BLAIR          CLOUDY    27  19  72 N5        30.24S WCI  22
COLUMBUS *     CLOUDY    25  16  68 E9        30.23S WCI  15
FREMONT        CLOUDY    27  19  72 NE5       30.25S WCI  22
TEKAMAH        CLOUDY    27  19  72 N6        30.27S WCI  20
WAYNE          CLOUDY    24  18  78 E8        30.25R WCI  15
$$

NEZ050>053-065>068-078-088>093-180200-
SOUTHEAST NEBRASKA

CITY           SKY/WX    TMP DP  RH WIND       PRES   REMARKS
LINCOLN        CLOUDY    26  17  68 SE6       30.25S WCI  19
OMAHA EPPLEY   CLOUDY    28  17  63 E3        30.27F
BEATRICE       CLOUDY    27  19  72 E8        30.22S WCI  19
FALLS CITY     CLOUDY    28  21  75 E5        30.25R WCI  23
NEBRASKA CITY  CLOUDY    26  17  67 E6        30.24F WCI  20
PLATTSMOUTH    CLOUDY    27  18  69 E3        30.25R
$$

NEZ044-045-051>053-067-180200-
OMAHA AREA

CITY           SKY/WX    TMP DP  RH WIND       PRES   REMARKS
OMAHA EPPLEY   CLOUDY    28  17  63 E3        30.27F
BLAIR          CLOUDY    27  19  72 N5        30.24S WCI  22
FREMONT        CLOUDY    27  19  72 NE5       30.25S WCI  22
MILLARD        CLOUDY    28  17  62 CALM      30.26S
OFFUTT AFB     CLOUDY    28  18  67 E6        30.26S WCI  21
PLATTSMOUTH    CLOUDY    27  18  69 E3        30.25R
WAHOO          CLOUDY    27  16  64 E5        30.25R WCI  21
$$


USA.gov is the U.S. government's official web portal to all federal, state and local government web resources and services.